Location: Praha
(50.0830°N, 14.4670°E)
Time: 06:53:34
(UTC+02:00)

ISS - Pass Details

Date: 04 July 2022
Orbit: 414 x 420 km, 51.6° (Epoch: 02 July)

Event Time Altitude Azimuth Distance (km) Brightness Sun altitude
Exits shadow 02:35:12 31° 189° (S) 766 -3.0 -14.4°
Maximum altitude 02:36:09 38° 150° (SSE) 651 -3.1 -14.4°
Drops below altitude 10° 02:39:18 10° 80° (E) 1,500 -0.5 -14.2°
Sets 02:41:29 0° 73° (ENE) 2,368 0.7 -14.1°
